Flag for U.S.A. Weather past 2 weeks in Sioux Falls, South Dakota, U.S.A.

Now
24 °F

Light snow. Ice fog.


Feels Like: 9 °F
Forecast: -1 / 21 °F
Wind: 21 mph from Northeast

Location: Foss Field

Current Time: Jan 31, 2015 at 10:16:52 PM

Latest Report: Jan 31, 2015 at 9:04 PM


Visibility: 1 mi

Pressure: 30.03 "Hg

Humidity: 88%

Dew point: 21 °F

Location of Sioux FallsLocation

Historic Weather in Sioux Falls — Graph

°F

Sioux Falls temperature yesterday

Maximum temperature yesterday: 38 °F (at 3:56 PM)
Minimum temperature yesterday: 19 °F (at 12:56 AM)
Average temperature yesterday: 28 °F

Past Weeks' High & Low Weather Summary

 TemperatureHumidityPressure
High48 °F (Jan 26, 1:56 PM)96% (Jan 16, 10:56 PM)30.60 "Hg (Jan 16, 10:56 PM)
Low19 °F (Jan 30, 12:56 AM)44% (Jan 18, 1:56 PM)29.59 "Hg (Jan 24, 8:56 PM)
Average32 °F82%30.04 "Hg
* Reported Jan 16 8:56 PM — Jan 31 8:56 PM, Sioux Falls, Weather by CustomWeather, © 2014

Note: Actual official high and low records may vary slightly from our data, if they occured in-between our weather recording intervals... More about our weather records

Advertising

Sioux Falls weather history for previous 24 hours

 ConditionsComfort  
Time TempWeatherWind HumidityBarometerVisibility
8:56 PM
Jan 31
24 °FLight snow. Ice fog.20 mph88%30.10 "Hg1 mi
7:56 PM25 °FLight snow. Ice fog.18 mph88%30.11 "Hg1 mi
6:56 PM25 °FLight snow. Ice fog.18 mph92%30.11 "Hg1 mi
5:56 PM26 °FLight snow. Ice fog.17 mph88%30.11 "Hg1 mi
4:56 PM26 °FLight snow. Ice fog.17 mph88%30.11 "Hg1 mi
3:56 PM26 °FLight snow. Ice fog.21 mph88%30.12 "Hg1 mi
2:56 PM26 °FLight snow. Ice fog.15 mph92%30.13 "Hg3 mi
1:56 PM27 °FIce fog.15 mph89%30.14 "Hg6 mi
12:56 PM26 °FIce fog.16 mph92%30.16 "Hg6 mi
11:56 AM26 °FIce fog.15 mph92%30.17 "Hg5 mi
10:56 AM26 °FIce fog.15 mph92%30.19 "Hg3 mi
9:56 AM26 °FIce fog.17 mph92%30.19 "Hg3 mi
8:56 AM26 °FIce fog.18 mph92%30.19 "Hg4 mi
7:56 AM25 °FIce fog.17 mph92%30.18 "Hg5 mi
6:56 AM26 °FPassing clouds.12 mph88%30.16 "Hg9 mi
5:56 AM25 °FPassing clouds.10 mph88%30.16 "Hg9 mi
4:56 AM22 °FPassing clouds.5 mph96%30.15 "Hg9 mi
3:56 AM22 °FClear.No wind89%30.14 "Hg9 mi
2:56 AM23 °FClear.3 mph92%30.15 "Hg10 mi
1:56 AM27 °FClear.No wind89%30.15 "Hg10 mi
12:56 AM30 °FClear.3 mph82%30.16 "Hg10 mi
11:56 PM
Jan 30
32 °FClear.5 mph79%30.17 "Hg10 mi
10:56 PM32 °FClear.6 mph79%30.18 "Hg10 mi
Weather by CustomWeather, © 2014

See weather overviewHow to use our weather pages